Location: Appeville
(49.3218°N, 1.3427°W)
Time: 00:05:12
(UTC+00:00)

Lacrosse 5 - Pass Details

Date: 08 December 2019
Orbit: 717 x 722 km, 57.0° (Epoch: 10 January)

Event Time Altitude Azimuth Distance (km) Brightness Sun altitude
Exits shadow 05:02:53 13° 191° (S) 1,974 4.1 -25.7°
Drops below altitude 10° 05:03:41 10° 184° (S) 2,195 4.4 -25.5°
Sets 05:06:29 0° 170° (S) 3,112 5.4 -25.1°
